TITAN 3C TRANSTAGE DEB, 27878

Orbit data source: Space-Track

TITAN 3C TRANSTAGE DEB, 27878 is space debris in HEO originally from a launch on Tue, 21 Dec 1965 UTC launched from the Air Force Eastern Test Range (AFETR). Debris objects in space refer to the collection of defunct objects orbiting the Earth. Examples of debris include non-operational satellites, rocket bodies, and fragments generated from explosions, collisions, or faulty payload assembly.

Loading next visibility...
Identifier
27878, 1965-108BP
Orbit
HEO
Country
Flag of USUS
Related business
Manufacturer
Unknown
Mission
Spacecraft
Bus & Motor
Unknown
Mass
Unknown
Launch date (UTC)
1965-12-21 (61 years ago)
Launch vehicle
Unknown
Launch site
Air Force Eastern Test Range (AFETR)
Object type
Payload
Rocket body
Debris
Shape & HBR
Unknown shape, 0.1 m
Radar Cross Section
Medium (>0.1 m² and <1 m²)

Expand to show TLE details & history
Last TLE update: 3 days ago

TLE from 3 days ago
0 TITAN 3C TRANSTAGE DEB
1 27878U 65108BP  26175.98853844  .00000431  00000-0  30564-2 0  9990
2 27878  26.2235 119.0480 6699002  94.0112 356.2585  2.84455631126434
Epoch: 2026-06-24T23:43Z
TLE epoch observation values (Epoch: 2026-06-24T23:43:29.721Z)
Latitude
24.47379°
Longitude
-83.30798°
Altitude
847.072 km
Speed
9.562 km/s
True Right ascension
12h 22m 48s
True Declination
24° 20' 46"
Sunlit
Object was in daylight at epoch
Visualization orbit readout
Latitude
Unknown
Longitude
Unknown
Altitude
Unknown
Speed
Unknown
Apparent Right ascension
Unknown
Apparent Declination
Unknown
Sunlit
N/A
Visualization observer readout
Local Sidereal Time
07:17:43
Azimuth
Unknown
Elevation
Unknown
Doppler factor
Unknown
Orbital elements
Apogee altitude
28,763.683 km
Perigee altitude
568.57 km
Semi-major axis
21,044.264 km
Eccentricity
0.6699
Inclination
26.2235°
RAAN
119.048°
Arg. of periapsis
94.0112°
True anomaly
335.14779°
Mean anomaly
356.2585°
Eccentric anomaly
348.80965°
Mean motion
0.71096 °/min
Orbital period
506.36 mins
BSTAR
0.0030564
Loading maneuver chart data...
Computing Atmospheric mass density...

Documentation

Showing up to 5 results
|